Wind_Speed
24 24 25 26 26 25 25 26 27 27 26 26 27 27 27 26 26 27 26 27 27 27 27 27 27 27 27 27 26 26 26 27 27 27 27 27 28 28
23 24 24 25 25 26 27 26 27 27 27 26 26 27 27 27 26 26 25 26 26 26 26 26 27 26 26 26 25 25 26 26 25 25 25 25 25 25
23 24 24 24 25 25 26 26 27 27 27 26 26 27 26 26 25 26 25 25 25 25 25 25 25 25 25 25 25 25 25 24 24 23 22 22 22 23
24 23 24 24 24 24 25 25 26 26 26 26 26 26 26 25 25 26 25 24 24 23 23 24 24 24 24 24 24 23 23 22 20 20 20 20 21 21
23 23 23 23 23 24 24 23 24 24 24 25 25 25 25 25 25 25 24 24 23 23 23 23 23 23 23 23 22 21 20 19 19 19 20 20 20 20
23 22 22 21 22 23 22 22 23 23 23 24 24 24 25 25 25 24 23 23 22 22 21 21 20 20 20 20 20 20 20 19 19 19 19 19 18 18
21 22 21 21 22 23 23 23 22 22 23 23 23 23 23 23 23 22 22 21 20 19 19 19 19 19 19 18 18 18 18 17 17 17 17 17 17 17
20 20 20 21 22 22 22 22 22 22 21 21 21 21 22 22 22 22 21 20 19 19 19 19 18 18 18 18 17 17 16 15 16 16 16 16 16 16
18 18 19 19 18 19 19 19 19 19 19 19 19 20 20 20 20 20 20 19 18 18 18 17 17 17 16 15 15 14 14 14 14 14 14 14 14 14
17 17 17 17 17 17 17 17 17 17 17 17 17 18 18 18 18 17 17 17 16 15 15 15 15 15 15 14 13 13 13 13 13 13 13 13 13 14
15 15 15 16 15 15 16 16 16 16 16 16 16 16 16 15 15 15 14 14 14 14 13 13 14 14 13 12 12 12 12 12 12 12 12 13 13 15
13 13 13 12 13 13 13 13 13 13 13 13 12 12 12 12 12 12 12 12 12 12 12 12 13 13 12 11 11 11 11 11 11 12 12 13 14 16
11 12 11 11 10 10 10 10 11 11 11 10 10 10 10 10 10 10 11 10 10 11 10 10 11 11 10 10 10 10 10 10 11 12 13 14 16 17
9 9 9 9 9 9 9 9 9 9 9 9 10 10 10 10 10 10 10 9 9 9 9 9 9 9 9 9 9 9 10 11 12 13 14 15 16 17
7 7 8 8 8 8 8 8 8 8 8 9 9 9 9 10 9 9 9 8 8 8 7 7 8 8 8 8 8 9 10 11 12 14 15 16 17 18
6 6 6 6 7 7 6 6 6 7 7 7 7 8 8 8 8 8 8 7 7 7 7 7 7 7 7 7 9 10 11 12 14 15 16 17 19 20
5 4 5 5 6 6 6 6 5 5 6 6 7 7 7 7 8 7 7 7 6 6 7 7 7 7 8 9 10 11 12 13 15 16 17 19 20 22
4 4 3 3 4 5 5 6 5 5 6 6 6 6 6 6 6 6 6 7 7 7 7 7 8 8 9 11 12 13 14 15 16 18 19 20 21 22
2 3 3 3 4 4 5 6 6 6 6 5 5 5 5 5 5 6 6 6 6 7 7 8 8 10 11 12 13 15 16 17 19 20 22 22 23 25
2 2 3 3 4 4 4 5 5 5 5 5 5 4 5 5 5 5 6 6 7 8 9 10 11 12 13 15 15 17 18 20 21 22 23 24 26 27
2 2 2 3 4 4 4 4 4 5 5 5 5 4 5 5 6 7 8 8 9 10 11 12 13 15 16 17 18 19 20 22 23 24 25 26 28 29
1 1 1 2 3 4 4 5 5 5 5 5 6 6 6 7 8 9 10 10 11 12 14 15 16 17 18 19 20 21 22 24 25 27 28 30 31 32
1 1 2 2 3 4 5 5 5 5 6 7 7 8 8 9 10 11 12 13 14 15 16 18 18 19 20 21 22 23 25 26 27 29 30 32 34 35
Wind_Direction
262 259 258 257 257 256 256 256 255 254 254 255 257 258 259 260 262 263 264 263 265 266 268 269 269 271 271 273 273 275 278 279 278 278 279 280 280 282
265 261 259 259 258 258 257 257 256 255 255 255 257 259 259 260 261 262 265 265 265 267 267 268 269 271 272 273 273 275 278 279 279 280 281 283 283 282
267 264 261 260 258 257 256 255 255 256 255 256 259 259 258 259 260 261 264 267 268 267 267 268 268 270 273 273 274 276 278 279 281 281 283 283 284 284
266 265 261 259 258 256 256 255 255 256 256 258 258 259 258 259 261 263 265 268 269 269 269 268 267 270 272 273 273 275 278 278 280 282 283 284 287 287
266 265 262 259 256 257 258 257 256 256 256 255 257 258 259 259 260 262 264 265 267 268 270 269 269 269 271 272 272 275 278 278 279 281 283 286 288 289
267 265 264 261 257 257 257 256 257 257 257 257 257 257 257 258 259 262 264 265 266 268 267 269 270 270 271 271 273 275 278 278 281 283 285 287 290 291
267 265 264 263 259 257 257 256 256 257 258 258 258 257 257 257 258 261 264 265 267 266 266 267 269 271 273 274 275 277 278 278 281 286 288 290 291 292
267 265 264 265 261 258 256 256 257 257 258 259 259 258 256 256 257 259 262 264 265 266 266 267 269 272 274 274 275 273 273 277 282 286 289 289 292 294
264 263 263 264 262 258 256 256 254 255 257 258 256 256 256 256 257 257 257 259 262 262 263 267 270 271 273 272 270 270 273 277 282 285 288 290 293 296
264 263 263 262 261 258 255 254 252 253 255 256 255 255 256 254 250 251 254 256 258 260 264 267 270 271 271 269 268 270 274 278 281 285 288 292 295 297
264 265 265 263 260 258 255 252 249 251 255 256 254 253 252 249 249 250 251 254 256 259 262 265 269 271 268 265 265 270 275 277 281 285 288 292 295 299
264 263 264 262 260 258 252 250 249 249 252 250 247 247 244 242 244 244 246 249 253 259 264 267 268 267 264 264 265 268 273 277 281 287 291 295 298 301
263 262 261 260 257 255 254 251 247 247 246 242 241 239 235 235 238 240 242 246 252 256 260 265 265 263 263 263 263 268 273 278 285 290 294 298 302 305
259 258 256 252 250 249 248 245 243 243 242 239 237 233 234 234 234 235 240 246 249 254 259 261 261 262 264 265 269 273 277 283 288 293 297 301 305 306
256 255 252 252 246 242 242 241 239 236 235 233 232 232 232 230 233 236 240 247 250 252 254 257 259 262 266 270 274 278 283 287 292 296 299 302 304 306
249 250 246 241 236 233 233 231 229 227 224 222 225 230 232 231 230 234 241 246 248 250 252 258 262 262 267 276 281 285 288 292 294 297 300 302 304 307
247 243 236 235 232 226 223 224 220 217 215 221 227 230 234 232 230 235 238 239 245 251 253 256 262 270 278 286 290 292 293 295 297 300 303 305 307 309
229 232 231 225 215 207 204 208 206 205 210 215 221 228 231 229 230 235 240 242 248 253 258 266 268 274 283 290 294 296 297 299 301 303 305 307 308 309
216 217 221 216 202 198 198 199 199 205 210 212 218 225 231 234 237 243 247 250 255 262 269 276 278 283 289 294 297 297 298 300 303 305 307 308 309 310
208 199 195 198 195 194 197 199 201 205 207 213 225 235 241 243 246 253 258 262 268 272 276 280 286 290 293 296 299 300 301 303 305 307 308 309 309 310
210 199 199 200 202 201 203 205 206 212 220 224 229 241 251 254 259 266 271 273 277 282 285 287 290 294 295 296 299 302 303 304 306 308 308 308 308 309
169 204 209 217 214 210 210 214 221 228 231 234 243 254 262 267 271 275 278 281 285 288 290 291 292 295 296 298 301 303 304 305 307 308 309 309 309 311
257 234 223 223 219 220 222 226 231 236 240 245 256 265 270 273 275 279 283 286 288 290 292 293 294 296 297 299 300 302 303 304 306 307 308 308 309 310
Height
5777 5778 5779 5779 5780 5781 5782 5784 5785 5787 5788 5789 5789 5790 5791 5792 5793 5793 5794 5794 5795 5795 5796 5796 5796 5796 5796 5795 5795 5794 5793 5792 5791 5790 5789 5789 5787 5786
5770 5771 5771 5772 5773 5774 5775 5776 5778 5779 5781 5782 5783 5784 5784 5785 5786 5787 5787 5788 5788 5789 5789 5790 5790 5789 5789 5789 5788 5787 5787 5786 5785 5784 5783 5782 5781 5780
5764 5764 5764 5765 5766 5767 5768 5769 5771 5772 5774 5775 5776 5777 5778 5779 5779 5780 5781 5781 5782 5782 5782 5783 5783 5783 5783 5782 5782 5781 5781 5780 5779 5778 5777 5776 5775 5774
5757 5757 5758 5758 5759 5760 5761 5762 5763 5765 5767 5768 5769 5770 5771 5772 5773 5774 5775 5775 5776 5776 5776 5776 5776 5777 5776 5776 5776 5775 5775 5774 5774 5773 5773 5772 5771 5769
5751 5751 5751 5751 5752 5753 5754 5755 5756 5758 5759 5761 5762 5763 5765 5766 5767 5768 5768 5769 5770 5770 5770 5770 5770 5771 5771 5770 5770 5770 5770 5769 5769 5768 5768 5767 5766 5765
5745 5745 5745 5745 5746 5747 5748 5749 5750 5751 5753 5754 5755 5757 5758 5759 5761 5762 5763 5763 5764 5764 5764 5764 5765 5765 5765 5765 5765 5765 5765 5764 5764 5764 5763 5762 5761 5760
5738 5739 5739 5739 5740 5741 5742 5743 5744 5745 5746 5747 5749 5750 5752 5753 5755 5756 5757 5758 5758 5758 5759 5759 5760 5760 5760 5760 5760 5760 5760 5760 5760 5759 5759 5758 5757 5756
5732 5733 5733 5733 5734 5734 5735 5737 5738 5739 5741 5742 5743 5744 5746 5747 5749 5750 5751 5752 5753 5754 5754 5755 5755 5755 5755 5756 5756 5756 5756 5756 5755 5755 5754 5754 5753 5751
5727 5727 5728 5728 5728 5728 5730 5731 5732 5734 5735 5736 5737 5739 5740 5742 5743 5744 5746 5747 5748 5749 5749 5750 5750 5751 5751 5751 5751 5751 5752 5752 5751 5751 5750 5749 5749 5747
5723 5723 5723 5723 5723 5724 5725 5726 5728 5729 5730 5731 5733 5734 5735 5736 5738 5740 5741 5742 5743 5744 5745 5746 5746 5746 5747 5747 5747 5747 5748 5748 5747 5747 5746 5746 5745 5743
5718 5718 5718 5719 5719 5719 5720 5721 5723 5725 5726 5727 5728 5729 5731 5732 5734 5735 5737 5738 5739 5740 5741 5742 5742 5742 5742 5743 5743 5743 5743 5744 5743 5743 5742 5742 5741 5739
5714 5714 5715 5715 5715 5716 5717 5718 5720 5721 5722 5723 5725 5726 5727 5729 5730 5732 5734 5735 5736 5737 5737 5738 5738 5739 5739 5739 5739 5740 5740 5740 5740 5739 5739 5738 5736 5735
5711 5711 5712 5712 5713 5713 5714 5716 5717 5718 5720 5721 5722 5723 5725 5726 5728 5729 5731 5732 5733 5733 5734 5735 5735 5735 5736 5736 5736 5737 5737 5736 5736 5736 5735 5734 5732 5730
5709 5709 5709 5710 5711 5711 5712 5713 5715 5716 5717 5718 5720 5721 5723 5724 5726 5727 5728 5729 5730 5731 5731 5732 5732 5733 5733 5733 5734 5734 5734 5733 5732 5732 5731 5729 5728 5725
5707 5707 5708 5708 5709 5710 5711 5712 5713 5714 5715 5717 5718 5720 5721 5722 5724 5725 5726 5727 5727 5728 5729 5729 5730 5730 5730 5730 5731 5731 5730 5730 5729 5728 5726 5725 5723 5720
5705 5706 5706 5707 5708 5709 5710 5711 5712 5713 5714 5716 5717 5718 5719 5721 5722 5723 5724 5725 5725 5726 5726 5727 5727 5728 5728 5728 5728 5727 5726 5726 5725 5724 5722 5720 5717 5715
5704 5705 5705 5706 5707 5708 5709 5710 5711 5713 5714 5715 5716 5718 5719 5720 5721 5722 5722 5723 5724 5724 5725 5725 5725 5725 5726 5725 5725 5724 5723 5722 5721 5719 5717 5715 5712 5709
5704 5705 5705 5706 5707 5708 5709 5710 5711 5713 5714 5715 5716 5717 5718 5719 5720 5720 5721 5721 5722 5722 5722 5723 5723 5723 5723 5723 5721 5720 5719 5718 5716 5714 5712 5709 5707 5703
5704 5704 5705 5706 5707 5708 5709 5710 5711 5713 5714 5715 5716 5717 5717 5718 5718 5719 5719 5719 5720 5720 5720 5720 5720 5720 5720 5719 5718 5716 5714 5713 5711 5708 5706 5703 5700 5697
5704 5705 5705 5706 5707 5708 5709 5710 5711 5713 5714 5715 5715 5716 5717 5717 5717 5718 5718 5718 5718 5718 5718 5718 5717 5716 5716 5715 5714 5712 5709 5707 5705 5702 5699 5696 5693 5690
5705 5705 5706 5707 5708 5709 5710 5711 5711 5712 5713 5714 5715 5715 5716 5716 5716 5716 5716 5716 5716 5716 5715 5715 5714 5712 5711 5710 5708 5707 5704 5701 5698 5695 5692 5689 5686 5682
5705 5706 5706 5707 5708 5709 5710 5710 5711 5712 5713 5713 5714 5715 5715 5715 5715 5715 5714 5714 5713 5712 5712 5711 5709 5708 5706 5704 5702 5700 5698 5695 5692 5688 5684 5680 5676 5672
5706 5707 5707 5707 5708 5709 5709 5710 5711 5711 5712 5712 5713 5713 5713 5713 5712 5712 5711 5710 5709 5708 5707 5706 5704 5703 5701 5698 5696 5694 5691 5688 5685 5681 5678 5672 5668 5664